This is the latest recevied weather packets stored in our database for station/object KG5WBN. If no packets are shown the sender has not sent any weather packets the latest 10 day(s).
| Time | Temp. | Humidity | Pressure | Rain* | Wind** | Luminosity | Snow |
|---|---|---|---|---|---|---|---|
| 1787946649 | 33.89° C | 43% | 1014.6 hPa | 0 mm | - | 373 W/m² | - |
| 1787946344 | 33.89° C | 43% | 1014.9 hPa | 0 mm | - | 374 W/m² | - |
| 1787946039 | 33.89° C | 43% | 1015.2 hPa | 0 mm | - | 383 W/m² | - |
| 1787945738 | 33.89° C | 43% | 1014.9 hPa | 0 mm | - | 372 W/m² | - |
| 1787945434 | 32.78° C | 44% | 1015.2 hPa | 0 mm | - | 376 W/m² | - |
| 1787945129 | 33.33° C | 43% | 1015.2 hPa | 0 mm | - | 382 W/m² | - |
| 1787944826 | 32.78° C | 44% | 1014.9 hPa | 0 mm | - | 369 W/m² | - |
| 1787944521 | 32.78° C | 44% | 1015.2 hPa | 0 mm | - | 394 W/m² | - |
| 1787944218 | 32.78° C | 43% | 1015.2 hPa | 0 mm | - | 384 W/m² | - |
| 1787943917 | 33.33° C | 43% | 1015.2 hPa | 0 mm | - | 392 W/m² | - |
| 1787943613 | 33.33° C | 43% | 1015.6 hPa | 0 mm | - | 389 W/m² | - |
| 1787943307 | 33.33° C | 43% | 1015.6 hPa | 0 mm | - | 389 W/m² | - |
| 1787943002 | 32.78° C | 44% | 1015.6 hPa | 0 mm | - | 402 W/m² | - |
| 1787942697 | 32.78° C | 44% | 1015.6 hPa | 0 mm | - | 393 W/m² | - |
| 1787942396 | 32.78° C | 44% | 1015.2 hPa | 0 mm | - | 390 W/m² | - |
| 1787942092 | 33.33° C | 43% | 1015.6 hPa | 0 mm | - | 392 W/m² | - |
| 1787941788 | 33.33° C | 43% | 1015.6 hPa | 0 mm | - | 384 W/m² | - |
| 1787941486 | 33.33° C | 43% | 1015.9 hPa | 0 mm | - | 377 W/m² | - |
| 1787941185 | 32.78° C | 44% | 1015.6 hPa | 0 mm | - | 371 W/m² | - |
| 1787940880 | 32.78° C | 44% | 1015.6 hPa | 0 mm | - | 369 W/m² | - |
| 1787940578 | 32.78° C | 44% | 1015.9 hPa | 0 mm | - | 369 W/m² | - |
| 1787940273 | 32.78° C | 44% | 1015.9 hPa | 0 mm | - | 373 W/m² | - |
| 1787939972 | 32.78° C | 44% | 1015.9 hPa | 0 mm | - | 363 W/m² | - |
| 1787939672 | 32.22° C | 47% | 1015.6 hPa | 0 mm | - | 373 W/m² | - |
| 1787939367 | 32.78° C | 44% | 1015.9 hPa | 0 mm | - | 313 W/m² | - |
* Rain latest hour (hover to see other rain measurements)
** Current wind speed in m/s (hover to see current wind gust speed)